{"data":{"norad_id":54204,"epoch":"2026-09-20T10:15:05.844672Z","epoch_age_seconds":95601,"freshness":"FRESH","line1":"1 54204U 22141AZ  26263.42715098  .00001286  00000+0  47764-4 0  9998","line2":"2 54204  53.1595 188.2296 0001417  66.8850 293.2302 15.35407485215558","mean_motion":15.35407485,"eccentricity":0.0001417,"inclination_deg":53.1595,"raan_deg":188.2296,"arg_perigee_deg":66.885,"mean_anomaly_deg":293.2302,"bstar":4.7764e-5,"rev_number":21555,"period_min":93.786178201417,"perigee_km":458.7414969983,"apogee_km":460.67934295712,"semimajor_km":6837.8474199777,"source":"CELESTRAK","updated_at":"2026-09-21T09:00:33.117703Z"}}